W4SNA-2 Weather Reports


time (UTC)temp
F
wind
direction
speed
knots
gust
knots
rain 1hr
in
rain 24hr
in
rain mn
in
humidity
%
barometer
mb
20260905180855 77 0 0.0 8.7 0.00 0.00 0.00 72 1014.9
20260905180356 78 318 2.6 8.7 0.00 0.00 0.00 73 1015.3
20260905175855 78 327 1.7 7.8 0.00 0.00 0.00 73 1015.6
20260905175355 78 326 3.5 12.2 0.00 0.00 0.00 71 1015.7
20260905174855 79 321 3.5 12.2 0.00 0.00 0.00 70 1015.8
20260905174356 80 344 5.2 11.3 0.00 0.00 0.00 68 1016.0
20260905173855 81 325 4.3 13.9 0.00 0.00 0.00 69 1015.9
20260905173355 83 331 4.3 13.9 0.00 0.00 0.00 67 1015.7
20260905172500 86 326 1.7 10.4 0.00 0.00 0.00 65 1016.0
20260905172001 87 303 2.6 8.7 0.00 0.00 0.00 64 1016.2
20260905171504 87 300 2.6 7.8 0.00 0.00 0.00 63 1016.2
20260905171000 88 300 0.9 7.8 0.00 0.00 0.00 64 1016.4
20260905170502 87 299 0.9 9.6 0.00 0.00 0.00 64 1016.6
20260905170000 87 298 2.6 9.6 0.00 0.00 0.00 65 1016.6
20260905165500 87 296 2.6 9.6 0.00 0.00 0.00 65 1016.7
20260905165000 87 293 0.9 6.1 0.00 0.00 0.00 66 1016.9
20260905164519 87 293 3.5 10.4 0.00 0.00 0.00 65 1016.9
20260905164500 86 293 0.9 10.4 0.00 0.00 0.00 66 1016.9
20260905164002 87 293 3.5 10.4 0.00 0.00 0.00 65 1016.9
20260905163607 87 283 1.7 7.0 0.00 0.00 0.00 65 1016.8
20260905163502 87 283 1.7 7.0 0.00 0.00 0.00 65 1016.8
20260905163000 87 283 0.9 6.1 0.00 0.00 0.00 66 1016.8
20260905162500 86 0 0.0 6.1 0.00 0.00 0.00 69 1016.8
20260905162000 86 282 0.9 6.1 0.00 0.00 0.00 68 1016.9
20260905161836 86 0 0.0 6.1 0.00 0.00 0.00 69 1016.9
20260905161502 86 0 0.0 6.1 0.00 0.00 0.00 69 1016.9
20260905161155 86 282 0.9 5.2 0.00 0.00 0.00 68 1016.9
20260905161000 86 282 0.9 5.2 0.00 0.00 0.00 68 1016.9
20260905160533 86 282 1.7 5.2 0.00 0.00 0.00 69 1016.9
20260905160500 86 282 1.7 5.2 0.00 0.00 0.00 69 1016.9
20260905160001 86 0 0.0 3.5 0.00 0.00 0.00 67 1016.9
20260905155500 86 282 0.9 6.1 0.00 0.00 0.00 69 1017.0
20260905155001 85 0 0.0 6.1 0.00 0.00 0.00 70 1017.0
20260905154743 87 0 0.0 6.1 0.00 0.00 0.00 68 1017.0
20260905154500 86 0 0.0 5.2 0.00 0.00 0.00 67 1017.1
20260905154000 87 0 0.0 6.1 0.00 0.00 0.00 68 1017.0
20260905153501 86 0 0.0 6.1 0.00 0.00 0.00 68 1017.1
20260905153001 86 0 0.0 3.5 0.00 0.00 0.00 69 1017.0
20260905152550 86 282 1.7 5.2 0.00 0.00 0.00 68 1017.0
20260905152503 86 282 1.7 5.2 0.00 0.00 0.00 68 1017.0
20260905152001 86 282 0.9 5.2 0.00 0.00 0.00 66 1017.0
20260905151500 86 0 0.0 2.6 0.00 0.00 0.00 67 1017.1
20260905151000 86 0 0.0 2.6 0.00 0.00 0.00 68 1017.1
20260905150501 86 0 0.0 2.6 0.00 0.00 0.00 68 1017.1
20260905150001 86 0 0.0 1.7 0.00 0.00 0.00 67 1017.1
20260905145500 86 0 0.0 2.6 0.00 0.00 0.00 66 1017.1
20260905145001 86 0 0.0 2.6 0.00 0.00 0.00 67 1017.1
20260905144502 85 0 0.0 2.6 0.00 0.00 0.00 67 1017.1
20260905144001 85 0 0.0 3.5 0.00 0.00 0.00 68 1017.1
20260905143501 85 0 0.0 3.5 0.00 0.00 0.00 70 1017.1
20260905143001 84 0 0.0 3.5 0.00 0.00 0.00 70 1017.2
20260905142500 84 0 0.0 3.5 0.00 0.00 0.00 70 1017.1
20260905142000 84 0 0.0 3.5 0.00 0.00 0.00 71 1017.0
20260905141500 84 282 0.9 3.5 0.00 0.00 0.00 70 1017.0
20260905141000 83 0 0.0 8.7 0.00 0.00 0.00 70 1016.9
20260905140510 83 0 0.0 8.7 0.00 0.00 0.00 70 1016.8
20260905140000 83 0 0.0 6.1 0.00 0.00 0.00 71 1016.7
20260905135500 82 0 0.0 6.1 0.00 0.00 0.00 73 1016.7
20260905135001 82 0 0.0 5.2 0.00 0.00 0.00 72 1016.6
20260905134542 82 0 0.0 5.2 0.00 0.00 0.00 72 1016.7
20260905134500 82 0 0.0 5.2 0.00 0.00 0.00 72 1016.7
20260905134000 82 0 0.0 3.5 0.00 0.00 0.00 72 1016.8
20260905133501 81 0 0.0 7.0 0.00 0.00 0.00 72 1016.8
20260905133003 81 285 0.9 7.0 0.00 0.00 0.00 72 1016.8
20260905132500 81 0 0.0 5.2 0.00 0.00 0.00 72 1016.7
20260905132000 81 285 0.9 7.0 0.00 0.00 0.00 71 1016.8
20260905131500 81 0 0.0 7.0 0.00 0.00 0.00 72 1016.7
20260905131000 81 0 0.0 5.2 0.00 0.00 0.00 73 1016.7
20260905130057 80 0 0.0 5.2 0.00 0.00 0.00 73 1016.8
20260905125600 80 285 0.9 7.0 0.00 0.00 0.00 73 1016.8
20260905125100 80 285 2.6 7.0 0.00 0.00 0.00 73 1016.8
20260905124557 79 285 0.9 6.1 0.00 0.00 0.00 74 1016.9
20260905124058 79 285 0.9 7.0 0.00 0.00 0.00 74 1016.9
20260905123557 79 0 0.0 7.0 0.00 0.00 0.00 74 1016.9
20260905123100 79 284 0.9 7.0 0.00 0.00 0.00 75 1016.8
20260905122557 78 284 0.9 8.7 0.00 0.00 0.00 75 1016.7
20260905122057 78 284 2.6 9.6 0.00 0.00 0.00 75 1016.7
20260905121557 78 283 3.5 9.6 0.00 0.00 0.00 75 1016.6
20260905121057 78 280 3.5 7.0 0.00 0.00 0.00 75 1016.7
20260905120155 77 280 2.6 8.7 0.00 0.00 0.00 75 1016.8
20260905115652 77 280 2.6 7.8 0.00 0.00 0.00 75 1016.8
20260905115158 77 280 2.6 7.8 0.00 0.00 0.00 76 1016.7
20260905114652 77 280 2.6 6.1 0.00 0.00 0.00 76 1016.6
20260905114153 77 280 0.9 7.8 0.00 0.00 0.00 76 1016.5
20260905113653 77 280 1.7 7.8 0.00 0.00 0.00 76 1016.5
20260905113154 77 280 1.7 6.1 0.00 0.00 0.00 76 1016.5
20260905112652 77 280 0.9 5.2 0.00 0.00 0.00 76 1016.5
20260905112152 76 0 0.0 5.2 0.00 0.00 0.00 76 1016.4
20260905111652 76 0 0.0 5.2 0.00 0.00 0.00 76 1016.3
20260905111154 77 280 0.9 7.8 0.00 0.00 0.00 76 1016.3
20260905110654 77 280 2.6 7.8 0.00 0.00 0.00 75 1016.3
20260905110200 77 280 2.6 7.0 0.00 0.00 0.00 75 1016.3
20260905105652 77 279 2.6 7.0 0.00 0.00 0.00 75 1016.3
20260905105152 77 280 2.6 7.8 0.00 0.00 0.00 74 1016.3
20260905104652 77 280 2.6 7.8 0.00 0.00 0.00 74 1016.3
20260905104055 77 280 2.6 8.7 0.00 0.00 0.00 74 1016.2
20260905103555 77 280 4.3 8.7 0.00 0.00 0.00 74 1016.1
20260905103100 77 280 2.6 7.8 0.00 0.00 0.00 74 1016.1
20260905102555 77 280 3.5 7.8 0.00 0.00 0.00 74 1016.1
20260905102055 76 280 3.5 7.8 0.00 0.00 0.00 75 1016.1
20260905101555 76 280 3.5 7.0 0.00 0.00 0.00 76 1016.1
20260905101055 76 280 3.5 7.0 0.00 0.00 0.00 77 1016.1
20260905100555 76 280 2.6 7.0 0.00 0.00 0.00 77 1016.1
20260905100055 76 280 1.7 7.0 0.00 0.00 0.00 76 1016.1
20260905095555 77 280 0.9 7.0 0.00 0.00 0.00 75 1016.1
20260905095055 77 280 1.7 7.0 0.00 0.00 0.00 74 1016.1
20260905094557 77 280 1.7 7.0 0.00 0.00 0.00 74 1016.1
20260905094055 77 0 0.0 3.5 0.00 0.00 0.00 74 1016.0
20260905093555 77 280 0.9 3.5 0.00 0.00 0.00 74 1016.0
20260905093055 77 0 0.0 5.2 0.00 0.00 0.00 73 1016.0
20260905092555 77 280 1.7 5.2 0.00 0.00 0.00 73 1016.0
20260905092058 77 0 0.0 3.5 0.00 0.00 0.00 73 1016.0
20260905091555 77 0 0.0 2.6 0.00 0.00 0.00 73 1016.1
20260905091056 77 0 0.0 3.5 0.00 0.00 0.00 74 1016.1
20260905090555 76 0 0.0 5.2 0.00 0.00 0.00 75 1016.2
20260905090056 76 0 0.0 5.2 0.00 0.00 0.00 75 1016.1
20260905085555 76 280 0.9 5.2 0.00 0.00 0.00 75 1016.2
20260905084557 76 280 1.7 3.5 0.00 0.00 0.00 74 1016.2
20260905084055 77 280 0.9 5.2 0.00 0.00 0.00 75 1016.2
20260905083557 77 280 0.9 5.2 0.00 0.00 0.00 75 1016.2
20260905083055 77 0 0.0 1.7 0.00 0.00 0.00 75 1016.3
20260905082555 77 0 0.0 1.7 0.00 0.00 0.00 74 1016.4
20260905082055 77 0 0.0 1.7 0.00 0.00 0.00 75 1016.4
20260905081555 77 0 0.0 1.7 0.00 0.00 0.00 74 1016.4
20260905081055 78 0 0.0 0.0 0.00 0.00 0.00 74 1016.5
20260905080555 78 0 0.0 0.0 0.00 0.00 0.00 74 1016.5
20260905080054 78 0 0.0 0.0 0.00 0.00 0.00 74 1016.6
20260905075555 78 0 0.0 0.0 0.00 0.00 0.00 74 1016.6
20260905075055 78 0 0.0 0.0 0.00 0.00 0.00 74 1016.7
20260905074555 78 0 0.0 0.0 0.00 0.00 0.00 73 1016.7
20260905074055 78 0 0.0 0.0 0.00 0.00 0.00 73 1016.8
20260905073555 78 0 0.0 0.0 0.00 0.00 0.00 73 1016.8
20260905073055 79 0 0.0 2.6 0.00 0.00 0.00 72 1016.8
20260905072555 79 0 0.0 2.6 0.00 0.00 0.00 72 1016.9
20260905072054 79 0 0.0 0.0 0.00 0.00 0.00 72 1016.9
20260905071554 79 0 0.0 0.0 0.00 0.00 0.00 72 1017.0
20260905071054 79 0 0.0 0.0 0.00 0.00 0.00 72 1017.2
20260905070554 78 0 0.0 0.0 0.00 0.00 0.00 72 1017.2
20260905070054 78 0 0.0 0.0 0.00 0.00 0.00 73 1017.3
20260905065555 77 0 0.0 0.0 0.00 0.00 0.00 74 1017.4
20260905065055 77 0 0.0 2.6 0.00 0.00 0.00 76 1017.3
20260905064554 77 0 0.0 2.6 0.00 0.00 0.00 76 1017.3
20260905064054 77 280 1.7 2.6 0.00 0.00 0.00 75 1017.4
20260905063555 78 280 0.9 2.6 0.00 0.00 0.00 75 1017.4
20260905063055 78 0 0.0 0.0 0.00 0.00 0.00 73 1017.4
20260905062428 78 0 0.0 1.7 0.00 0.00 0.00 75 1017.5
20260905061929 78 0 0.0 0.9 0.00 0.00 0.00 75 1017.6
20260905061430 77 0 0.0 0.0 0.00 0.00 0.00 76 1017.7
20260905060928 77 0 0.0 1.7 0.00 0.00 0.00 76 1017.8
20260905060431 77 0 0.0 7.8 0.00 0.00 0.00 77 1017.9
20260905055930 77 0 0.0 7.8 0.00 0.00 0.00 77 1018.0
20260905055429 77 280 1.7 7.8 0.00 0.00 0.00 76 1018.0
20260905054928 77 280 0.9 3.5 0.00 0.00 0.00 76 1018.1
20260905054428 77 0 0.0 2.6 0.00 0.00 0.00 77 1018.4
20260905053928 77 0 0.0 0.0 0.00 0.00 0.00 78 1018.5
20260905053428 77 0 0.0 0.0 0.00 0.00 0.00 77 1018.6
20260905052928 77 0 0.0 2.6 0.00 0.00 0.00 77 1018.6
20260905052430 77 0 0.0 2.6 0.00 0.00 0.00 77 1018.5
20260905051928 78 0 0.0 3.5 0.00 0.00 0.00 76 1018.5
20260905051428 78 0 0.0 5.2 0.00 0.00 0.00 76 1018.6
20260905050928 78 280 1.7 5.2 0.00 0.00 0.00 76 1018.8
20260905050431 77 0 0.0 0.0 0.00 0.00 0.00 76 1018.8
20260905045928 77 0 0.0 0.0 0.00 0.00 0.00 77 1018.8
20260905045428 77 0 0.0 3.5 0.00 0.00 0.00 79 1018.9
20260905044928 78 0 0.0 3.5 0.00 0.00 0.00 79 1019.0
20260905044428 78 0 0.0 2.6 0.00 0.00 0.00 75 1019.0
20260905043928 78 0 0.0 6.1 0.00 0.00 0.00 73 1019.0
20260905043430 78 280 1.7 7.0 0.00 0.00 0.00 74 1019.0
20260905042928 78 280 4.3 7.0 0.00 0.00 0.00 74 1018.9
20260905042429 78 280 4.3 7.0 0.00 0.00 0.00 74 1018.8
20260905041928 78 280 4.3 7.0 0.00 0.00 0.00 75 1018.8
20260905041429 78 280 3.5 6.1 0.00 0.00 0.00 75 1018.9
20260905040930 79 280 2.6 6.1 0.00 0.00 0.00 75 1019.0
20260905040428 79 280 1.7 5.2 0.00 0.00 0.00 74 1018.9
20260905035928 79 280 0.9 5.2 0.00 0.00 0.00 73 1019.1
20260905035343 80 0 0.0 1.7 0.00 0.00 0.00 72 1019.1
20260905034811 80 0 0.0 1.7 0.00 0.00 0.00 72 1019.1
20260905033651 80 0 0.0 1.7 0.00 0.00 0.00 72 1018.8
20260905033149 80 0 0.0 1.7 0.00 0.00 0.00 72 1018.8
20260905032649 80 0 0.0 0.0 0.00 0.00 0.00 71 1018.8
20260905032149 80 0 0.0 0.0 0.00 0.00 0.00 71 1018.7
20260905031649 79 0 0.0 0.0 0.00 0.00 0.00 72 1018.7
20260905031151 79 0 0.0 0.0 0.00 0.00 0.00 72 1018.5
20260905030649 79 0 0.0 0.0 0.00 0.00 0.00 73 1018.4
20260905030149 79 0 0.0 0.0 0.00 0.00 0.00 75 1018.3
20260905025649 79 0 0.0 0.0 0.00 0.00 0.00 75 1018.3
20260905025148 79 0 0.0 0.0 0.00 0.00 0.00 77 1018.4
20260905024649 79 0 0.0 0.0 0.00 0.00 0.00 77 1018.4
20260905024149 79 0 0.0 0.9 0.00 0.00 0.00 77 1018.4
20260905023649 79 0 0.0 0.9 0.00 0.00 0.00 76 1018.3
20260905023149 79 0 0.0 2.6 0.00 0.00 0.00 75 1018.2
20260905022649 80 0 0.0 2.6 0.00 0.00 0.00 74 1017.8
20260905022149 81 0 0.0 1.7 0.00 0.00 0.00 71 1017.9
20260905021649 81 0 0.0 0.0 0.00 0.00 0.00 67 1017.9
20260905021149 81 0 0.0 0.0 0.00 0.00 0.00 67 1017.9
20260905020650 81 0 0.0 0.0 0.00 0.00 0.00 67 1017.9
20260905020149 81 0 0.0 1.7 0.00 0.00 0.00 67 1018.0
20260905015649 81 0 0.0 1.7 0.00 0.00 0.00 67 1017.9
20260905015042 81 0 0.0 5.2 0.00 0.00 0.00 68 1017.9
20260905014542 81 0 0.0 5.2 0.00 0.00 0.00 68 1017.8
20260905014043 80 0 0.0 5.2 0.00 0.00 0.00 68 1017.7
20260905013542 80 0 0.0 5.2 0.00 0.00 0.00 69 1017.6
20260905013042 80 280 0.9 5.2 0.00 0.00 0.00 69 1017.7
20260905012542 80 0 0.0 5.2 0.00 0.00 0.00 69 1017.7
20260905011742 80 0 0.0 3.5 0.00 0.00 0.00 69 1017.7
20260905011241 80 0 0.0 6.1 0.00 0.00 0.00 69 1017.6
20260905010854 80 280 0.9 6.1 0.00 0.00 0.00 69 1017.7
20260905010741 80 280 0.9 6.1 0.00 0.00 0.00 69 1017.7
20260905010242 80 280 0.9 5.2 0.00 0.00 0.00 70 1017.8
20260905005741 80 280 0.9 3.5 0.00 0.00 0.00 70 1017.7
20260905005316 80 0 0.0 2.6 0.00 0.00 0.00 70 1017.8
20260905005241 80 0 0.0 2.6 0.00 0.00 0.00 70 1017.8
20260905004741 80 0 0.0 0.0 0.00 0.00 0.00 70 1017.8
20260905004242 80 0 0.0 0.9 0.00 0.00 0.00 71 1017.9
20260905003745 80 0 0.0 0.9 0.00 0.00 0.00 72 1017.9
20260905003241 80 0 0.0 0.0 0.00 0.00 0.00 71 1018.0
20260905002741 80 0 0.0 0.0 0.00 0.00 0.00 71 1019.0
20260905002241 80 0 0.0 0.0 0.00 0.00 0.00 71 1019.0
20260905001741 80 0 0.0 0.0 0.00 0.00 0.00 72 1019.0
20260905001241 81 0 0.0 0.0 0.00 0.00 0.00 72 1019.3
20260905000741 81 0 0.0 0.0 0.00 0.00 0.00 71 1019.3
20260905000241 81 0 0.0 0.0 0.00 0.00 0.00 71 1019.4
20260904235741 81 0 0.0 0.9 0.00 0.00 0.00 71 1019.6
20260904235241 81 0 0.0 3.5 0.00 0.00 0.00 72 1019.4
20260904234741 81 0 0.0 3.5 0.00 0.00 0.00 72 1019.3
20260904234241 81 0 0.0 1.7 0.00 0.00 0.00 72 1019.3
20260904233741 81 0 0.0 1.7 0.00 0.00 0.00 71 1019.2
20260904233241 81 0 0.0 1.7 0.00 0.00 0.00 71 1019.2
20260904232745 81 0 0.0 5.2 0.00 0.00 0.00 72 1019.1
20260904232242 81 280 0.9 7.0 0.00 0.00 0.00 72 1019.2
20260904231741 81 280 3.5 8.7 0.00 0.00 0.00 71 1019.0
20260904231243 81 280 4.3 8.7 0.00 0.00 0.00 72 1018.9
20260904230741 80 280 3.5 7.0 0.00 0.00 0.00 74 1019.0
20260904230246 80 280 3.5 7.8 0.00 0.00 0.00 74 1019.2
20260904225743 80 280 2.6 7.8 0.00 0.00 0.00 74 1019.2
20260904225242 80 280 4.3 7.8 0.00 0.00 0.00 73 1019.2
20260904224741 81 280 4.3 7.8 0.00 0.00 0.00 72 1019.1
20260904224242 81 279 4.3 9.6 0.00 0.00 0.00 71 1019.0
20260904223741 82 280 5.2 9.6 0.00 0.00 0.00 71 1019.0
20260904223242 83 280 2.6 6.1 0.00 0.00 0.00 71 1019.1
20260904222741 83 0 0.0 3.5 0.00 0.00 0.00 67 1019.0
20260904222242 83 280 0.9 5.2 0.00 0.00 0.00 67 1018.9
20260904221741 83 0 0.0 5.2 0.00 0.00 0.00 67 1018.9
20260904221245 83 280 0.9 5.2 0.00 0.00 0.00 67 1018.8
20260904220741 83 0 0.0 3.5 0.00 0.00 0.00 68 1018.8
20260904220241 84 0 0.0 3.5 0.00 0.00 0.00 70 1019.0
20260904215741 84 0 0.0 7.0 0.00 0.00 0.00 68 1019.0
20260904215241 84 280 1.7 7.0 0.00 0.00 0.00 68 1019.0
20260904214741 84 280 2.6 7.0 0.00 0.00 0.00 69 1019.0
20260904214241 85 280 0.9 6.1 0.00 0.00 0.00 73 1019.1
20260904213741 85 280 0.9 7.0 0.00 0.00 0.00 72 1019.0
20260904213241 85 280 1.7 7.0 0.00 0.00 0.00 71 1018.9
20260904212741 86 280 1.7 7.0 0.00 0.00 0.00 70 1018.9
20260904212241 87 280 1.7 7.0 0.00 0.00 0.00 68 1018.7
20260904211741 88 280 1.7 7.8 0.00 0.00 0.00 68 1018.6
20260904211243 88 280 2.6 7.8 0.00 0.00 0.00 67 1018.6
20260904210922 90 0 0.0 6.1 0.00 0.00 0.00 63 1018.5
20260904210742 88 280 0.9 7.0 0.00 0.00 0.00 67 1018.6
20260904210241 89 280 1.7 7.0 0.00 0.00 0.00 64 1018.5
20260904205741 90 0 0.0 6.1 0.00 0.00 0.00 63 1018.5
20260904205241 90 0 0.0 5.2 0.00 0.00 0.00 63 1018.6
20260904204741 90 280 1.7 5.2 0.00 0.00 0.00 62 1018.4
20260904204241 90 0 0.0 2.6 0.00 0.00 0.00 63 1018.6
20260904203741 90 0 0.0 2.6 0.00 0.00 0.00 63 1018.5
20260904203241 89 0 0.0 5.2 0.00 0.00 0.00 64 1018.4
20260904202741 90 280 0.9 5.2 0.00 0.00 0.00 63 1018.5
20260904202241 90 0 0.0 5.2 0.00 0.00 0.00 62 1018.7
20260904201741 90 0 0.0 2.6 0.00 0.00 0.00 62 1018.7
20260904201241 90 0 0.0 0.9 0.00 0.00 0.00 60 1018.5
20260904200741 90 0 0.0 0.9 0.00 0.00 0.00 59 1018.5
20260904200241 91 0 0.0 0.9 0.00 0.00 0.00 58 1018.7
20260904195741 92 0 0.0 0.9 0.00 0.00 0.00 58 1018.7
20260904195241 92 0 0.0 1.7 0.00 0.00 0.00 57 1018.6
20260904194741 92 0 0.0 2.6 0.00 0.00 0.00 57 1018.7
20260904194241 92 0 0.0 3.5 0.00 0.00 0.00 57 1018.8
20260904193741 92 280 0.9 5.2 0.00 0.00 0.00 57 1018.9
20260904193241 93 280 0.9 5.2 0.00 0.00 0.00 56 1019.0
20260904192741 93 0 0.0 5.2 0.00 0.00 0.00 56 1019.0
20260904192606 93 280 1.7 5.2 0.00 0.00 0.00 55 1019.1
20260904192241 93 280 1.7 5.2 0.00 0.00 0.00 55 1019.1
20260904191741 93 0 0.0 3.5 0.00 0.00 0.00 56 1019.2
20260904191241 93 0 0.0 6.1 0.00 0.00 0.00 55 1019.3
20260904191155 93 0 0.0 2.6 0.00 0.00 0.00 53 1019.6
20260904190741 93 280 1.7 6.1 0.00 0.00 0.00 54 1019.5
20260904190241 93 0 0.0 2.6 0.00 0.00 0.00 53 1019.6
20260904185741 93 0 0.0 3.5 0.00 0.00 0.00 54 1019.7
20260904185241 93 280 0.9 3.5 0.00 0.00 0.00 54 1019.7
20260904184741 93 0 0.0 2.6 0.00 0.00 0.00 56 1019.8
20260904184241 92 280 0.9 2.6 0.00 0.00 0.00 57 1019.8
20260904183741 92 280 0.9 5.2 0.00 0.00 0.00 58 1019.9
20260904183241 91 280 1.7 7.8 0.00 0.00 0.00 58 1019.9
20260904182741 91 280 1.7 7.8 0.00 0.00 0.00 59 1020.1
20260904182241 91 280 1.7 5.2 0.00 0.00 0.00 58 1020.2
20260904181741 92 280 0.9 5.2 0.00 0.00 0.00 56 1020.2
20260904181241 92 280 0.9 5.2 0.00 0.00 0.00 57 1020.3